TimeCDT,TemperatureF,Dew PointF,Humidity,Sea Level PressureIn,VisibilityMPH,Wind Direction,Wind SpeedMPH,Gust SpeedMPH,PrecipitationIn,Events,Conditions,WindDirDegrees,DateUTC
12:28 AM,42.8,42.8,100,30.01,2.5,SE,6.9,-,N/A,,Clear,130,2013-10-11 05:28:00
12:33 AM,42.8,42.8,100,30.01,4.0,SE,4.6,-,N/A,,Clear,130,2013-10-11 05:33:00
12:58 AM,44.1,44.1,100,30.02,10.0,SE,5.8,-,N/A,,Clear,130,2013-10-11 05:58:00
1:58 AM,42.1,42.1,100,30.02,10.0,ESE,6.9,-,N/A,,Clear,120,2013-10-11 06:58:00
2:58 AM,41.9,41.9,100,30.02,9.0,SE,5.8,-,N/A,,Clear,140,2013-10-11 07:58:00
3:28 AM,41.0,41.0,100,30.02,1.0,Calm,Calm,-,N/A,,Clear,0,2013-10-11 08:28:00
3:33 AM,41.0,41.0,100,30.01,0.8,ENE,2.3,-,N/A,,Clear,60,2013-10-11 08:33:00
3:38 AM,41.0,41.0,100,30.01,2.0,NNE,1.2,-,N/A,,Clear,20,2013-10-11 08:38:00
3:43 AM,41.0,41.0,100,30.01,9.0,NE,1.2,-,N/A,,Clear,40,2013-10-11 08:43:00
3:58 AM,40.8,40.8,100,30.02,10.0,Calm,Calm,-,N/A,,Clear,0,2013-10-11 08:58:00
4:28 AM,42.8,42.8,100,30.01,2.5,NE,1.2,-,N/A,,Clear,50,2013-10-11 09:28:00
4:43 AM,41.0,41.0,100,30.01,3.0,ENE,2.3,-,N/A,,Clear,60,2013-10-11 09:43:00
4:58 AM,40.8,40.8,100,30.02,9.0,NE,4.6,-,N/A,,Clear,50,2013-10-11 09:58:00
5:43 AM,41.0,41.0,100,30.01,2.5,ENE,3.5,-,N/A,,Clear,60,2013-10-11 10:43:00
5:48 AM,41.0,41.0,100,30.01,1.2,NE,2.3,-,N/A,,Clear,50,2013-10-11 10:48:00
5:53 AM,42.8,42.8,100,30.01,1.2,Variable,2.3,-,N/A,,Clear,0,2013-10-11 10:53:00
5:58 AM,42.8,42.8,100,30.03,1.8,ENE,2.3,-,N/A,,Clear,70,2013-10-11 10:58:00
6:03 AM,42.8,42.8,100,30.01,2.5,NE,2.3,-,N/A,,Clear,50,2013-10-11 11:03:00
6:08 AM,41.0,41.0,100,30.01,4.0,NE,3.5,-,N/A,,Clear,50,2013-10-11 11:08:00
6:53 AM,41.0,41.0,100,30.01,2.5,SSE,3.5,-,N/A,,Clear,150,2013-10-11 11:53:00
6:58 AM,41.0,41.0,100,30.04,1.8,Variable,3.5,-,N/A,,Clear,0,2013-10-11 11:58:00
7:03 AM,42.8,42.8,100,30.01,1.2,Variable,2.3,-,N/A,,Clear,0,2013-10-11 12:03:00
7:08 AM,41.0,41.0,100,30.01,1.5,SE,2.3,-,N/A,,Clear,130,2013-10-11 12:08:00
7:13 AM,41.0,41.0,100,30.01,4.0,Variable,3.5,-,N/A,,Clear,0,2013-10-11 12:13:00
7:58 AM,46.4,46.4,100,30.04,4.0,Variable,4.6,-,N/A,,Clear,0,2013-10-11 12:58:00
8:58 AM,51.8,51.8,100,30.03,7.0,Variable,2.3,-,N/A,,Mostly Cloudy,0,2013-10-11 13:58:00
9:58 AM,59.0,55.4,88,30.03,10.0,SE,4.6,-,N/A,,Mostly Cloudy,140,2013-10-11 14:58:00
10:58 AM,62.6,55.4,77,30.01,10.0,SE,9.2,-,N/A,,Scattered Clouds,130,2013-10-11 15:58:00
11:58 AM,69.8,57.2,64,29.99,10.0,SE,10.4,-,N/A,,Scattered Clouds,130,2013-10-11 16:58:00
12:58 PM,73.4,57.2,57,29.94,10.0,SSE,10.4,26.5,N/A,,Mostly Cloudy,160,2013-10-11 17:58:00
1:58 PM,73.4,57.2,57,29.91,10.0,SE,17.3,27.6,N/A,,Mostly Cloudy,130,2013-10-11 18:58:00
2:58 PM,73.4,55.4,53,29.88,10.0,SSE,17.3,27.6,N/A,,Scattered Clouds,150,2013-10-11 19:58:00
3:58 PM,73.8,55.9,54,29.87,10.0,SSE,17.3,26.5,N/A,,Clear,150,2013-10-11 20:58:00
4:58 PM,72.9,55.4,54,29.87,10.0,SE,12.7,25.3,N/A,,Clear,140,2013-10-11 21:58:00
5:58 PM,70.5,56.1,60,29.87,10.0,SE,10.4,-,N/A,,Clear,140,2013-10-11 22:58:00
6:58 PM,67.5,55.6,66,29.88,10.0,SE,10.4,-,N/A,,Clear,130,2013-10-11 23:58:00
7:58 PM,65.3,55.2,70,29.90,10.0,ESE,9.2,-,N/A,,Clear,120,2013-10-12 00:58:00
8:58 PM,63.3,55.4,75,29.89,10.0,ESE,8.1,-,N/A,,Clear,120,2013-10-12 01:58:00
9:58 PM,64.2,55.8,74,29.88,10.0,ESE,9.2,-,N/A,,Scattered Clouds,120,2013-10-12 02:58:00
10:58 PM,63.1,55.2,75,29.87,10.0,SE,10.4,-,N/A,,Mostly Cloudy,130,2013-10-12 03:58:00
11:58 PM,62.8,55.2,76,29.86,10.0,ESE,8.1,-,N/A,,Scattered Clouds,120,2013-10-12 04:58:00